Location: Forestville
(38.4740°N, 122.8890°W)
Time: 09:23:09
(UTC-08:00)

Amateur Radio Satellites - All Passes

Search period start: 26 November 2014 08:53
Search period end: 27 November 2014 08:53
Location: Forestville, 38.4740°N, 122.8890°W

Satellite Date Start Highest point End Downlink Frequencies (MHz)
Time Altitude Azimuth
GOMX 1 26 Nov 08:59:20 09:03:13 37° 98° (E) 09:07:11 467.674
CUTE 1.7 + AOD 2 26 Nov 08:59:25 09:03:40 58° 100° (E) 09:07:54 437.475
UNISAT 6 26 Nov 08:59:32 09:01:58 15° 65° (ENE) 09:04:24 437.425
HO-68 26 Nov 09:05:59 09:13:09 68° 103° (ESE) 09:20:14 435.675
POPSAT HIP 1 26 Nov 09:08:16 09:10:11 13° 65° (ENE) 09:12:06 437.405
ANTELSAT 26 Nov 09:26:51 09:30:34 30° 70° (ENE) 09:34:17 437.575/2403.000
UKube-1 26 Nov 09:26:55 09:30:45 30° 97° (E) 09:34:34 .
BRITE-PL 26 Nov 09:29:42 09:33:49 65° 285° (WNW) 09:37:59 437.365/2234.400
FUNcube-1 26 Nov 09:31:09 09:33:57 17° 94° (E) 09:36:47 145.935
SEEDS 26 Nov 09:32:00 09:36:15 67° 284° (WNW) 09:40:30 437.485
Oscar 11 26 Nov 09:37:36 09:41:50 49° 99° (E) 09:46:03 145.826/435.025
POLYITAN 1 26 Nov 09:40:03 09:43:44 29° 70° (ENE) 09:47:25 437.675
QB50P2 26 Nov 09:41:50 09:45:34 30° 71° (ENE) 09:49:19 145.880/145.840
GONETS M04 26 Nov 09:43:30 09:51:16 34° 288° (WNW) 09:59:08
DUCHIFAT 1 26 Nov 09:47:29 09:51:20 34° 71° (ENE) 09:55:11 145.980
AAUSAT CUBESAT 2 26 Nov 09:48:08 09:52:18 58° 285° (WNW) 09:56:27 437.432
DELFI C3 26 Nov 09:51:22 09:55:29 61° 101° (E) 09:59:34 145.870
DOVE 4 26 Nov 09:53:13 09:57:22 68° 284° (WNW) 10:01:40 437.250
UWE-3 26 Nov 09:57:15 10:01:16 40° 99° (E) 10:05:23 435.000/436.395/437.385
CUBEBUG 2 26 Nov 09:57:46 10:01:53 48° 100° (E) 10:06:07 437.445
50 SAT 26 Nov 09:58:49 10:01:26 17° 94° (E) 10:04:04 437.505
CANX-2 26 Nov 10:01:13 10:04:45 25° 290° (WNW) 10:08:17 2200.000
DX 1 26 Nov 10:02:30 10:06:52 82° 103° (ESE) 10:11:11 434.975-435.025
COMPASS 1 26 Nov 10:03:59 10:07:50 34° 288° (WNW) 10:11:40 437.405
NANOSAT C BR1 26 Nov 10:06:35 10:10:46 59° 74° (ENE) 10:14:57 145.865
HUMSAT D 26 Nov 10:11:52 10:15:32 29° 97° (E) 10:19:13 437.325/437.525
QB50P1 26 Nov 10:16:28 10:20:43 78° 76° (ENE) 10:24:59 145.935-145.965
TIGRISAT 26 Nov 10:20:12 10:24:26 66° 259° (WSW) 10:28:41 435.000
BUGSAT 1 26 Nov 10:24:51 10:29:06 80° 76° (ENE) 10:33:21 437.445
CINEMA 3 26 Nov 10:26:15 10:30:18 47° 286° (WNW) 10:34:30 145.822/145.860
ZACube-1 26 Nov 10:31:16 10:35:32 88° 103° (ESE) 10:39:52 437.345
VELOX 1 26 Nov 10:34:09 10:38:30 54° 101° (E) 10:42:48 145.980
UNISAT 6 26 Nov 10:34:19 10:38:24 44° 261° (W) 10:42:29 437.425
ESTCUBE 1 26 Nov 10:34:58 10:38:24 21° 94° (E) 10:41:47 437.505/2401.250
CUTE 1.7 + AOD 2 26 Nov 10:37:25 10:39:05 12° 296° (WNW) 10:40:46 437.475
GOMX 1 26 Nov 10:38:29 10:41:05 16° 293° (WNW) 10:43:44 467.674
POPSAT HIP 1 26 Nov 10:41:28 10:45:38 53° 260° (W) 10:49:48 437.405
HO-68 26 Nov 10:54:52 11:00:11 23° 301° (WNW) 11:05:30 435.675
AISAT 26 Nov 11:00:39 11:05:05 73° 285° (WNW) 11:09:27 437.250
UKube-1 26 Nov 11:03:25 11:06:44 22° 293° (WNW) 11:10:03 .
ANTELSAT 26 Nov 11:04:10 11:07:23 21° 265° (W) 11:10:37 437.575/2403.000
FUNcube-1 26 Nov 11:06:31 11:10:25 36° 288° (WNW) 11:14:23 145.935
CUBEBUG 1 26 Nov 11:11:57 11:16:12 50° 100° (E) 11:20:24 437.445
Oscar 11 26 Nov 11:15:15 11:17:35 14° 295° (WNW) 11:19:55 145.826/435.025
POLYITAN 1 26 Nov 11:16:24 11:19:40 21° 265° (W) 11:22:57 437.675
QB50P2 26 Nov 11:18:19 11:21:31 20° 265° (W) 11:24:43 145.880/145.840
DUCHIFAT 1 26 Nov 11:24:22 11:27:17 18° 266° (W) 11:30:13 145.980
SO-50 26 Nov 11:25:56 11:29:38 21° 46° (NE) 11:33:21 436.795
DELFI C3 26 Nov 11:29:13 11:30:15 11° 296° (WNW) 11:31:16 145.870
50 SAT 26 Nov 11:33:09 11:36:50 34° 288° (WNW) 11:40:33 437.505
UWE-3 26 Nov 11:34:52 11:37:31 16° 293° (WNW) 11:40:12 435.000/436.395/437.385
CUBEBUG 2 26 Nov 11:36:01 11:38:13 14° 294° (WNW) 11:40:27 437.445
Oscar 19 26 Nov 11:37:48 11:40:41 15° 63° (ENE) 11:43:34 437.125/150
NANOSAT C BR1 26 Nov 11:46:09 11:47:00 11° 269° (W) 11:47:50 145.865
HUMSAT D 26 Nov 11:48:02 11:51:10 21° 291° (WNW) 11:54:19 437.325/437.525
YUBILEINY 26 Nov 12:08:49 12:14:47 20° 65° (ENE) 12:20:42 435.215
ESTCUBE 1 26 Nov 12:11:14 12:15:20 34° 290° (WNW) 12:19:23 437.505/2401.250
VELOX 1 26 Nov 12:12:27 12:14:36 14° 296° (WNW) 12:16:45 145.980
AUBIESAT-1 26 Nov 12:21:46 12:23:32 12° 94° (E) 12:25:17 437.475
CUSAT 1 26 Nov 12:22:30 12:24:32 19° 94° (E) 12:26:29 437.405
TISAT 1 26 Nov 12:22:31 12:26:45 81° 103° (ESE) 12:30:56 437.305
M-CUBED/EXP-1 PRIME 26 Nov 12:26:26 12:29:16 15° 96° (E) 12:32:02 437.505
BEESAT 26 Nov 12:29:53 12:32:03 13° 91° (E) 12:34:13 436.000
ITAMSAT 1 26 Nov 12:31:05 12:34:45 20° 64° (ENE) 12:38:26 435.822/435.867
SPROUT 26 Nov 12:33:54 12:38:12 85° 283° (WNW) 12:42:29 437.525
VERMONT LUNAR 26 Nov 12:44:54 12:46:01 11° 143° (SE) 12:47:08 437.305
CUBEBUG 1 26 Nov 12:49:53 12:52:08 14° 296° (WNW) 12:54:22 437.445
DANDE 26 Nov 12:50:01 12:52:46 43° 97° (E) 12:55:16 436.750
SO-50 26 Nov 13:05:44 13:10:29 53° 243° (WSW) 13:15:14 436.795
Gurwin Techsat 1B 26 Nov 13:05:48 13:09:58 24° 66° (ENE) 13:14:08 435.225
Oscar 19 26 Nov 13:14:25 13:19:27 63° 259° (WSW) 13:24:33 437.125/150
ITUPSAT 1 26 Nov 13:23:53 13:28:33 48° 100° (E) 13:33:09 437.325
SWISSCUBE 26 Nov 13:34:31 13:39:19 70° 102° (ESE) 13:44:04 437.505
AUBIESAT-1 26 Nov 13:54:03 13:58:58 73° 290° (WNW) 14:03:44 437.475
M-CUBED/EXP-1 PRIME 26 Nov 13:59:45 14:04:37 59° 291° (WNW) 14:09:21 437.505
YUBILEINY 26 Nov 14:03:54 14:12:38 82° 265° (W) 14:21:17 435.215
BEESAT 26 Nov 14:05:33 14:10:16 60° 286° (WNW) 14:14:58 436.000
ITAMSAT 1 26 Nov 14:08:48 14:13:51 50° 260° (W) 14:18:55 435.822/435.867
PHONESAT 2.4 26 Nov 14:11:57 14:15:19 33° 152° (SSE) 14:18:42 2401.200-2431.200
AO-7 26 Nov 14:16:09 14:23:09 32° 59° (ENE) 14:30:11 29.400- 29.500
VERMONT LUNAR 26 Nov 14:20:27 14:23:57 50° 157° (SSE) 14:27:29 437.305
KKS-1 26 Nov 14:22:37 14:26:50 41° 99° (E) 14:31:01 437.445
MaSat-1 26 Nov 14:34:13 14:37:03 36° 112° (ESE) 14:39:39 437.345
HORYU 2 26 Nov 14:36:37 14:41:01 79° 76° (ENE) 14:45:28 437.375
Gurwin Techsat 1B 26 Nov 14:44:40 14:49:39 41° 262° (W) 14:54:40 435.225
ITUPSAT 1 26 Nov 15:02:54 15:06:01 18° 296° (WNW) 15:09:08 437.325
SWISSCUBE 26 Nov 15:14:36 15:16:33 12° 298° (WNW) 15:18:31 437.505
STARS 26 Nov 15:16:58 15:21:21 70° 285° (WNW) 15:25:43 437.465
RS-15 26 Nov 15:20:29 15:30:52 51° 111° (ESE) 15:41:11 29.354- 29.394
JAS-2 26 Nov 15:21:46 15:27:54 27° 62° (ENE) 15:34:08 435.910
PHONESAT 2.4 26 Nov 15:50:14 15:53:58 79° 348° (NNW) 15:57:41 2401.200-2431.200
O/OREOS (USA 219) 26 Nov 15:55:57 16:00:26 85° 250° (WSW) 16:04:55 437.305
VERMONT LUNAR 26 Nov 15:58:49 16:02:25 66° 353° (N) 16:06:03 437.305
KKS-1 26 Nov 16:00:15 16:03:08 17° 294° (WNW) 16:06:01 437.445
YUBILEINY 26 Nov 16:04:02 16:07:56 14° 284° (WNW) 16:11:49 435.215
AO-7 26 Nov 16:07:22 16:15:28 58° 257° (WSW) 16:23:39 29.400- 29.500
Cubesat XI-IV 26 Nov 16:53:41 16:58:21 31° 68° (ENE) 17:03:01 437.490
JAS-2 26 Nov 17:04:41 17:12:13 67° 259° (W) 17:20:05 435.910
MOZHAYETS 4 26 Nov 17:08:20 17:13:01 73° 102° (ESE) 17:17:39
PHONESAT 2.4 26 Nov 17:29:14 17:32:56 64° 5° (N) 17:36:38 2401.200-2431.200
RS-15 26 Nov 17:32:52 17:43:15 47° 313° (NW) 17:53:44 29.354- 29.394
CUTE-I 26 Nov 17:34:03 17:39:23 72° 74° (ENE) 17:44:44 437.470
VERMONT LUNAR 26 Nov 17:37:27 17:41:05 73° 10° (N) 17:44:43 437.305
GONETS M04 26 Nov 17:58:45 18:05:21 23° 67° (ENE) 18:11:52
STRAND 1 26 Nov 18:04:14 18:07:47 19° 93° (E) 18:11:19 437.568
PRISM 26 Nov 18:04:22 18:08:30 50° 100° (E) 18:12:35 437.425
Cubesat XI-IV 26 Nov 18:33:37 18:38:21 31° 263° (W) 18:43:06 437.490
MOZHAYETS 4 26 Nov 18:48:07 18:49:36 11° 297° (WNW) 18:51:04
CUBESAT XI-V 26 Nov 18:51:58 18:56:37 64° 101° (E) 19:01:11 437.345
BEESAT 3 26 Nov 18:57:12 19:00:01 18° 110° (ESE) 19:02:53 437.485
JAS-2 26 Nov 18:57:21 18:58:31 10° 276° (W) 18:59:41 435.910
BRITE-PL 26 Nov 19:03:47 19:05:40 12° 65° (ENE) 19:07:31 437.365/2234.400
PHONESAT 2.4 26 Nov 19:08:06 19:11:46 58° 202° (SSW) 19:15:25 2401.200-2431.200
AIST 1 26 Nov 19:08:35 19:12:37 37° 91° (E) 19:16:41
BEESAT 2 26 Nov 19:12:44 19:16:04 24° 112° (ESE) 19:19:28 435.950
PCSat 26 Nov 19:13:15 19:18:33 61° 114° (ESE) 19:23:54 145.827
VERMONT LUNAR 26 Nov 19:16:04 19:19:28 38° 206° (SSW) 19:22:51 437.305
CUTE-I 26 Nov 19:17:37 19:19:57 13° 270° (W) 19:22:17 437.470
CANX-2 26 Nov 19:18:18 19:20:53 16° 66° (ENE) 19:23:29 2200.000
COMPASS 1 26 Nov 19:21:33 19:22:50 11° 64° (ENE) 19:24:07 437.405
HO-68 26 Nov 19:32:52 19:39:33 44° 66° (ENE) 19:46:16 435.675
PRISM 26 Nov 19:41:30 19:43:36 14° 296° (WNW) 19:45:42 437.425
STRAND 1 26 Nov 19:42:19 19:47:11 47° 289° (WNW) 19:52:02 437.568
AIST 2 26 Nov 19:50:34 19:54:16 31° 113° (ESE) 19:58:03 435.215
CUTE 1.7 + AOD 2 26 Nov 19:51:25 19:55:13 34° 72° (ENE) 19:59:03 437.475
RS-15 26 Nov 19:52:29 19:59:27 18° 344° (NNW) 20:06:31 29.354- 29.394
CINEMA 3 26 Nov 19:53:09 19:54:23 11° 65° (ENE) 19:55:36 145.822/145.860
GONETS M04 26 Nov 19:54:14 20:03:02 74° 267° (W) 20:11:44
GOMX 1 26 Nov 20:06:10 20:10:33 38° 73° (ENE) 20:14:42 467.674
UKube-1 26 Nov 20:21:13 20:24:38 23° 68° (ENE) 20:28:04 .
SEEDS 26 Nov 20:22:54 20:27:03 70° 76° (ENE) 20:31:15 437.485
FUNcube-1 26 Nov 20:27:45 20:29:17 12° 65° (ENE) 20:30:49 145.935
Oscar 11 26 Nov 20:31:21 20:35:10 32° 71° (ENE) 20:38:59 145.826/435.025
CUBESAT XI-V 26 Nov 20:31:27 20:33:29 13° 297° (WNW) 20:35:30 437.345
BEESAT 3 26 Nov 20:34:08 20:37:57 37° 306° (NW) 20:41:51 437.485
AAUSAT CUBESAT 2 26 Nov 20:37:55 20:42:03 78° 76° (ENE) 20:46:14 437.432
BRITE-PL 26 Nov 20:38:41 20:43:44 70° 258° (WSW) 20:48:23 437.365/2234.400
DELFI C3 26 Nov 20:39:09 20:42:45 31° 71° (ENE) 20:46:22 145.870
AIST 1 26 Nov 20:47:31 20:50:25 17° 288° (WNW) 20:53:21
PHONESAT 2.4 26 Nov 20:48:07 20:50:04 14° 216° (SW) 20:52:01 2401.200-2431.200
BEESAT 2 26 Nov 20:50:37 20:54:14 29° 309° (NW) 20:57:54 435.950
CANX-2 26 Nov 20:52:32 20:56:29 40° 262° (W) 21:00:29 2200.000
UWE-3 26 Nov 20:53:53 20:57:29 28° 71° (ENE) 21:01:03 435.000/436.395/437.385
COMPASS 1 26 Nov 20:53:56 20:58:02 59° 260° (W) 21:02:11 437.405
CUBEBUG 2 26 Nov 20:55:20 20:59:10 34° 72° (ENE) 21:02:57 437.445
DX 1 26 Nov 20:56:40 21:00:58 59° 74° (ENE) 21:05:17 434.975-435.025
DOVE 4 26 Nov 20:57:30 21:02:08 80° 258° (WSW) 21:06:32 437.250
PCSat 26 Nov 20:58:25 21:02:23 20° 312° (NW) 21:06:22 145.827
HUMSAT D 26 Nov 21:03:53 21:06:44 18° 68° (ENE) 21:09:34 437.325/437.525
HO-68 26 Nov 21:20:56 21:27:18 34° 263° (W) 21:33:43 435.675
ZACube-1 26 Nov 21:26:15 21:30:23 56° 75° (ENE) 21:34:28 437.345
CINEMA 3 26 Nov 21:26:45 21:31:07 62° 259° (W) 21:35:20 145.822/145.860
CUTE 1.7 + AOD 2 26 Nov 21:28:22 21:31:14 18° 267° (W) 21:34:08 437.475
AIST 2 26 Nov 21:29:23 21:32:55 25° 310° (NW) 21:36:29 435.215
VELOX 1 26 Nov 21:30:44 21:34:57 41° 72° (ENE) 21:39:09 145.980
ESTCUBE 1 26 Nov 21:34:08 21:37:08 18° 66° (ENE) 21:40:08 437.505/2401.250
GOMX 1 26 Nov 21:45:20 21:48:44 19° 265° (W) 21:52:01 467.674
GONETS M04 26 Nov 21:55:14 21:58:10 12° 285° (WNW) 22:01:05
NANOSAT C BR1 26 Nov 21:56:28 21:57:15 10° 91° (E) 21:58:02 145.865
UKube-1 26 Nov 21:56:51 22:00:39 29° 263° (W) 22:04:27 .
AISAT 26 Nov 21:57:18 22:01:47 85° 76° (ENE) 22:06:17 437.250
FUNcube-1 26 Nov 22:01:03 22:05:11 55° 260° (W) 22:09:17 145.935
QB50P1 26 Nov 22:05:11 22:07:24 14° 92° (E) 22:09:38 145.935-145.965
CUBEBUG 1 26 Nov 22:07:00 22:11:04 36° 71° (ENE) 22:15:08 437.445
Oscar 11 26 Nov 22:08:12 22:11:22 20° 266° (W) 22:14:34 145.826/435.025
RS-15 26 Nov 22:10:16 22:17:57 20° 22° (NNE) 22:25:48 29.354- 29.394
BUGSAT 1 26 Nov 22:11:09 22:12:53 12° 92° (E) 22:14:36 437.445
TIGRISAT 26 Nov 22:13:40 22:17:30 28° 96° (E) 22:21:22 435.000
DELFI C3 26 Nov 22:15:17 22:18:06 18° 266° (W) 22:20:57 145.870
50 SAT 26 Nov 22:20:17 22:24:17 65° 259° (W) 22:28:18 437.505
UNISAT 6 26 Nov 22:27:35 22:31:49 40° 99° (E) 22:36:06 437.425
POPSAT HIP 1 26 Nov 22:28:59 22:32:33 26° 96° (E) 22:36:07 437.405
UWE-3 26 Nov 22:30:45 22:34:01 21° 265° (W) 22:37:15 435.000/436.395/437.385
CUBEBUG 2 26 Nov 22:33:03 22:35:57 18° 266° (W) 22:38:50 437.445
DX 1 26 Nov 22:36:14 22:37:33 11° 269° (W) 22:38:53 434.975-435.025
HUMSAT D 26 Nov 22:38:35 22:42:19 32° 263° (W) 22:46:03 437.325/437.525
ISS 26 Nov 22:47:52 22:51:06 62° 138° (SE) 22:54:22 145.825
ANTELSAT 26 Nov 22:56:17 23:00:46 86° 103° (ESE) 23:05:21 437.575/2403.000
CUSAT 1 26 Nov 22:59:29 23:03:46 28° 78° (ENE) 23:09:07 437.405
POLYITAN 1 26 Nov 23:02:41 23:06:54 69° 102° (ESE) 23:11:07 437.675
QB50P2 26 Nov 23:04:17 23:08:31 72° 102° (ESE) 23:12:44 145.880/145.840
ZACube-1 26 Nov 23:06:21 23:07:05 10° 269° (W) 23:07:49 437.345
VELOX 1 26 Nov 23:08:50 23:11:42 17° 267° (W) 23:14:34 145.980
ESTCUBE 1 26 Nov 23:09:20 23:13:39 43° 261° (W) 23:18:00 437.505/2401.250
DUCHIFAT 1 26 Nov 23:09:40 23:13:53 82° 103° (ESE) 23:18:05 145.980
AUBIESAT-1 26 Nov 23:10:23 23:11:59 12° 56° (NE) 23:13:38 437.475
TISAT 1 26 Nov 23:13:45 23:17:52 49° 73° (ENE) 23:22:00 437.305
M-CUBED/EXP-1 PRIME 26 Nov 23:15:29 23:17:51 15° 58° (ENE) 23:20:19 437.505
JUGNU 26 Nov 23:24:08 23:24:37 10° 172° (S) 23:25:07 437.505
SPROUT 26 Nov 23:26:40 23:30:55 60° 75° (ENE) 23:35:11 437.525
NANOSAT C BR1 26 Nov 23:29:20 23:33:29 58° 286° (WNW) 23:37:37 145.865
DANDE 26 Nov 23:29:29 23:34:01 44° 80° (E) 23:40:01 436.750
BEESAT 26 Nov 23:35:36 23:38:02 14° 63° (ENE) 23:40:29 436.000
QB50P1 26 Nov 23:39:30 23:43:31 43° 287° (WNW) 23:47:31 145.935-145.965
CUBEBUG 1 26 Nov 23:44:22 23:47:31 19° 266° (W) 23:50:41 437.445
BUGSAT 1 26 Nov 23:44:44 23:48:38 45° 287° (WNW) 23:52:28 437.445
TIGRISAT 26 Nov 23:50:29 23:54:08 25° 291° (WNW) 23:57:51 435.000
POPSAT HIP 1 27 Nov 00:05:00 00:08:21 23° 291° (WNW) 00:11:41 437.405
UNISAT 6 27 Nov 00:05:16 00:08:19 18° 293° (WNW) 00:11:23 437.425
MaSat-1 27 Nov 00:13:43 00:15:54 34° 63° (ENE) 00:18:08 437.345
RS-15 27 Nov 00:22:37 00:33:37 56° 51° (NE) 00:45:02 29.354- 29.394
ISS 27 Nov 00:25:35 00:28:01 19° 335° (NNW) 00:30:27 145.825
ITUPSAT 1 27 Nov 00:29:22 00:33:59 48° 72° (ENE) 00:38:37 437.325
SWISSCUBE 27 Nov 00:39:43 00:44:28 68° 74° (ENE) 00:49:16 437.505
CUSAT 1 27 Nov 00:42:17 00:46:48 34° 265° (W) 00:52:36 437.405
AUBIESAT-1 27 Nov 00:42:17 00:46:17 67° 254° (WSW) 00:50:43 437.475
M-CUBED/EXP-1 PRIME 27 Nov 00:48:27 00:52:22 51° 256° (WSW) 00:56:40 437.505
TISAT 1 27 Nov 00:52:04 00:53:58 13° 268° (W) 00:55:52 437.305
SPROUT 27 Nov 01:06:30 01:07:22 11° 269° (W) 01:08:14 437.525
YUBILEINY 27 Nov 01:08:42 01:15:12 24° 81° (E) 01:21:40 435.215
BEESAT 27 Nov 01:10:36 01:15:20 62° 259° (WSW) 01:20:06 436.000
JUGNU 27 Nov 01:10:38 01:12:43 12° 182° (S) 01:14:49 437.505
DANDE 27 Nov 01:13:46 01:17:26 21° 266° (W) 01:21:53 436.750
KKS-1 27 Nov 01:19:47 01:23:44 32° 70° (ENE) 01:27:42 437.445
SRMSAT 27 Nov 01:23:43 01:25:38 12° 175° (S) 01:27:32 437.500
Oscar 19 27 Nov 01:27:25 01:32:28 52° 100° (E) 01:37:29 437.125/150
ITUPSAT 1 27 Nov 02:09:04 02:12:06 17° 267° (W) 02:15:10 437.325
STARS 27 Nov 02:12:37 02:17:02 85° 76° (ENE) 02:21:27 437.465
SWISSCUBE 27 Nov 02:21:16 02:22:47 11° 270° (W) 02:24:17 437.505
ITAMSAT 1 27 Nov 02:23:00 02:28:10 67° 102° (ESE) 02:33:17 435.822/435.867
HORYU 2 27 Nov 02:30:52 02:33:50 17° 94° (E) 02:36:48 437.375
RS-15 27 Nov 02:35:23 02:45:42 43° 252° (WSW) 02:56:29 29.354- 29.394
KKS-1 27 Nov 02:57:02 03:00:25 21° 265° (W) 03:03:48 437.445
Gurwin Techsat 1B 27 Nov 03:01:57 03:07:18 89° 104° (ESE) 03:12:36 435.225
YUBILEINY 27 Nov 03:02:23 03:11:08 69° 279° (W) 03:19:54 435.215
Oscar 19 27 Nov 03:07:52 03:11:22 19° 296° (WNW) 03:14:52 437.125/150
SRMSAT 27 Nov 03:12:01 03:13:54 12° 185° (S) 03:15:47 437.500
SO-50 27 Nov 03:18:54 03:23:22 74° 119° (ESE) 03:27:59 436.795
BEESAT 3 27 Nov 03:19:37 03:20:25 10° 41° (NE) 03:21:13 437.485
BEESAT 2 27 Nov 03:34:59 03:37:04 13° 44° (NE) 03:39:08 435.950
ISS 27 Nov 03:42:16 03:43:38 12° 16° (NNE) 03:45:00 145.825
PCSat 27 Nov 04:02:48 04:07:47 36° 55° (NE) 04:12:45 145.827
ITAMSAT 1 27 Nov 04:04:14 04:07:03 15° 298° (WNW) 04:09:52 435.822/435.867
HORYU 2 27 Nov 04:06:27 04:10:40 40° 288° (WNW) 04:14:52 437.375
MOZHAYETS 4 27 Nov 04:08:53 04:13:22 56° 74° (ENE) 04:17:54
AO-7 27 Nov 04:10:20 04:18:32 55° 103° (ESE) 04:26:40 29.400- 29.500
AIST 2 27 Nov 04:14:26 04:17:14 17° 46° (NE) 04:20:01 435.215
JAS-2 27 Nov 04:18:38 04:23:35 21° 89° (E) 04:28:07 435.910
O/OREOS (USA 219) 27 Nov 04:30:13 04:32:12 13° 98° (E) 04:34:11 437.305
Gurwin Techsat 1B 27 Nov 04:44:49 04:46:27 11° 300° (WNW) 04:48:05 435.225
PRISM 27 Nov 04:54:07 04:57:50 31° 70° (ENE) 05:01:34 437.425
BEESAT 3 27 Nov 04:55:06 04:59:19 85° 59° (ENE) 05:03:27 437.485
SO-50 27 Nov 05:01:49 05:04:28 15° 318° (NW) 05:07:10 436.795
YUBILEINY 27 Nov 05:06:37 05:09:44 12° 301° (WNW) 05:12:52 435.215
BEESAT 2 27 Nov 05:11:38 05:15:50 71° 241° (WSW) 05:19:58 435.950
Cubesat XI-IV 27 Nov 05:14:03 05:16:27 13° 91° (E) 05:18:50 437.490
ISS 27 Nov 05:17:44 05:20:56 46° 35° (NE) 05:24:07 145.825
STRAND 1 27 Nov 05:18:40 05:22:47 25° 66° (ENE) 05:26:54 437.568
PCSat 27 Nov 05:46:24 05:51:04 30° 252° (WSW) 05:55:42 145.827
MOZHAYETS 4 27 Nov 05:48:54 05:50:56 13° 269° (W) 05:53:00
AIST 2 27 Nov 05:52:00 05:56:12 54° 243° (WSW) 06:00:19 435.215
CUTE-I 27 Nov 05:53:10 05:57:54 32° 97° (E) 06:02:35 437.470
CUBESAT XI-V 27 Nov 05:53:54 05:58:28 52° 74° (ENE) 06:03:04 437.345
JAS-2 27 Nov 06:02:21 06:09:13 60° 289° (WNW) 06:15:15 435.910
AO-7 27 Nov 06:03:43 06:10:54 34° 300° (WNW) 06:18:04 29.400- 29.500
O/OREOS (USA 219) 27 Nov 06:06:42 06:11:05 53° 294° (WNW) 06:15:28 437.305
PRISM 27 Nov 06:30:19 06:33:25 20° 265° (W) 06:36:32 437.425
Cubesat XI-IV 27 Nov 06:51:43 06:57:02 70° 286° (WNW) 07:02:17 437.490
AIST 1 27 Nov 06:54:38 06:59:01 78° 264° (W) 07:03:20
ISS 27 Nov 06:55:08 06:57:19 17° 230° (SW) 06:59:30 145.825
STRAND 1 27 Nov 06:57:00 07:01:45 37° 262° (W) 07:06:31 437.568
GONETS M04 27 Nov 06:58:32 07:05:27 27° 82° (E) 07:12:23
CUTE-I 27 Nov 07:33:18 07:37:52 30° 293° (WNW) 07:42:24 437.470
CUBESAT XI-V 27 Nov 07:33:37 07:36:12 15° 269° (W) 07:38:47 437.345
SEEDS 27 Nov 08:10:57 08:13:03 13° 92° (E) 08:15:08 437.485
AAUSAT CUBESAT 2 27 Nov 08:24:41 08:26:57 14° 92° (E) 08:29:13 437.432
CANX-2 27 Nov 08:39:30 08:43:29 37° 98° (E) 08:47:28 2200.000
COMPASS 1 27 Nov 08:39:59 08:43:29 24° 95° (E) 08:46:58 437.405
BRITE-PL 27 Nov 08:45:13 08:49:04 36° 98° (E) 08:52:59 437.365/2234.400
DX 1 27 Nov 08:49:17 08:50:30 11° 91° (E) 08:51:43 434.975-435.025
